Wind_Speed
8 8 9 10 10 11 12 14 14 14 15 15 16 16 14 13 12 11 12 14 16 17 18 20 20 21 22 23 23 23 24 25 25 26 26 26 27 28 29 30 30 31 32 33
7 7 8 9 10 11 11 12 13 14 15 15 15 15 14 12 12 11 12 13 13 15 16 18 20 20 21 22 23 24 25 25 25 26 27 27 28 28 29 29 30 30 30 30
5 6 6 7 8 9 10 11 12 13 14 14 14 14 12 11 11 11 12 12 14 15 16 17 18 20 21 22 23 24 25 25 26 26 27 27 27 27 28 28 29 28 29 29
5 5 6 6 7 8 10 10 10 11 12 12 12 12 10 10 10 12 12 13 14 15 16 17 18 20 21 22 22 23 23 23 24 24 24 25 25 26 26 27 27 27 27 27
4 4 6 6 8 9 9 9 9 8 9 9 10 10 10 10 12 13 13 13 14 15 16 17 18 19 20 20 20 20 21 21 21 22 22 23 23 24 24 24 25 25 25 25
3 5 6 6 7 8 7 7 8 7 8 8 8 8 8 9 10 11 12 12 13 13 15 16 17 18 18 18 19 19 19 20 20 21 21 22 22 23 23 22 22 22 22 22
4 5 6 7 7 8 7 8 7 7 7 7 7 6 7 8 8 9 10 11 12 12 13 14 15 16 17 17 18 18 19 19 19 20 20 21 21 21 21 20 20 20 20 20
4 5 6 7 8 8 8 9 8 8 7 6 6 6 6 7 7 8 9 10 11 11 12 13 14 14 15 15 16 17 17 18 18 18 19 19 19 19 19 19 18 18 18 17
6 6 7 8 9 9 9 9 9 8 7 7 5 5 6 6 6 7 8 9 10 10 11 11 12 13 14 14 15 15 16 16 17 17 18 18 18 18 18 17 17 16 16 15
6 7 8 9 10 10 10 10 10 9 8 7 6 6 6 6 5 6 7 8 9 10 10 11 12 12 13 13 14 14 15 15 16 17 17 17 17 17 16 16 15 14 14 13
8 9 10 10 11 11 12 12 11 10 9 8 7 6 7 7 6 6 6 7 8 9 10 10 11 12 12 13 13 14 15 15 16 16 15 15 15 15 14 14 13 12 12 12
9 10 11 11 12 13 13 13 12 11 10 9 9 8 8 7 7 6 6 7 7 8 8 9 9 10 12 13 13 14 14 14 13 13 13 13 12 12 11 11 11 10 10 10
9 10 12 13 13 13 13 14 13 13 11 10 10 9 9 8 8 7 7 7 7 6 7 8 9 10 11 11 12 12 11 11 11 11 11 10 10 10 9 9 9 8 8 8
10 11 12 13 14 14 14 15 15 14 13 12 11 11 10 9 9 8 8 8 8 7 8 8 9 9 10 9 9 9 9 9 8 8 8 8 8 7 7 7 7 7 7 6
10 11 12 13 14 15 15 16 16 16 15 14 13 12 12 11 10 10 10 10 10 9 8 8 8 8 8 7 7 7 7 6 6 6 6 6 5 5 5 5 5 5 5 5
9 11 12 13 14 15 15 16 17 17 17 16 15 15 14 13 12 12 11 11 11 11 10 10 9 8 7 5 5 4 4 4 4 5 5 4 4 3 3 2 3 3 3 3
9 11 12 13 14 15 16 16 17 18 18 17 16 16 15 15 14 13 13 13 13 13 13 12 11 9 7 5 4 4 4 4 4 4 4 4 3 2 2 2 2 2 2 3
10 10 12 13 14 15 16 17 17 18 18 18 17 17 16 16 16 15 15 15 14 14 14 14 13 11 9 7 6 5 5 4 4 4 4 4 4 3 3 2 2 2 2 3
10 10 12 13 14 15 15 16 17 18 18 18 18 18 17 17 17 17 17 17 16 15 15 15 14 14 12 10 9 7 7 6 5 5 5 5 4 4 4 3 3 3 3 3
9 10 11 12 13 14 15 16 17 17 18 18 18 18 18 18 18 19 19 18 18 17 17 16 16 16 14 13 12 10 9 8 7 6 6 6 5 5 5 4 4 4 4 4
8 9 10 11 13 14 15 16 16 17 17 18 18 18 18 18 19 19 20 19 19 19 18 18 18 17 16 15 14 13 11 10 9 9 8 8 7 7 6 6 6 6 6 6
7 8 9 10 12 13 14 15 16 16 17 17 17 18 18 18 19 19 20 20 20 20 20 20 20 19 18 17 16 15 13 12 11 11 10 10 9 9 8 8 8 8 8 8
6 6 7 9 10 12 13 14 15 15 16 16 17 17 17 18 18 19 19 20 20 20 20 21 21 21 20 20 19 18 16 15 14 13 12 12 11 11 10 10 10 10 10 10
6 5 5 7 9 10 11 12 13 14 14 15 15 16 17 17 17 18 19 19 19 20 20 20 21 21 21 20 20 19 18 17 16 15 14 13 13 12 12 12 11 11 11 11
6 4 3 5 7 9 10 11 12 12 12 13 14 14 15 16 16 17 17 18 18 19 19 20 20 20 20 20 20 19 18 18 17 16 15 15 14 14 13 13 12 12 12 12
6 3 1 2 4 6 8 9 10 11 11 11 12 13 13 14 14 15 16 16 17 17 18 18 18 19 19 19 19 18 18 17 17 16 16 15 15 14 13 13 12 12 12 12
8 5 3 1 3 5 7 8 9 9 10 10 10 11 11 12 12 13 14 14 15 15 16 16 16 16 17 17 17 17 16 16 15 15 15 14 14 13 13 12 12 12 12 12
Wind_Direction
278 276 271 264 266 269 270 270 272 276 278 279 281 285 289 281 271 259 254 244 243 246 247 246 249 252 254 254 255 257 260 262 265 267 269 271 274 276 278 280 282 284 285 286
277 278 274 271 271 275 275 273 274 277 279 282 282 283 282 274 268 267 264 255 252 252 250 247 249 253 254 257 259 261 264 265 267 269 270 272 274 275 278 280 281 283 285 287
281 281 284 280 279 279 280 285 282 280 280 280 280 279 275 269 268 267 262 260 258 254 251 251 254 255 257 259 261 264 265 266 267 269 272 274 275 276 278 280 282 284 286 287
289 293 292 300 299 296 296 294 290 287 286 286 280 275 269 264 259 261 257 252 253 254 255 258 260 259 260 262 263 266 267 268 270 272 273 275 277 278 280 282 284 286 287 288
317 315 313 309 306 304 302 302 302 298 294 292 289 281 269 263 263 266 265 259 256 256 258 261 262 262 264 266 267 269 270 271 272 274 276 277 278 280 281 283 285 286 287 288
338 333 332 328 323 322 318 317 316 311 306 305 300 290 279 271 267 267 263 260 259 260 260 262 263 264 267 269 271 272 273 274 275 275 276 277 279 281 282 283 284 285 287 288
3 355 354 352 348 342 339 337 334 330 325 318 310 305 297 287 277 269 263 261 264 264 264 265 266 269 271 273 275 275 276 276 276 277 278 278 280 281 282 283 285 286 288 290
27 17 7 6 5 360 355 353 353 352 347 335 320 314 307 297 284 272 263 265 270 271 270 270 272 273 274 276 276 277 278 279 279 280 280 280 280 281 283 284 285 286 289 292
39 30 23 19 17 14 8 6 6 5 1 353 336 324 317 309 296 281 275 277 276 275 276 276 275 275 277 278 279 279 280 280 280 281 282 282 281 281 281 281 283 286 290 293
47 38 32 28 25 24 21 18 14 11 7 1 352 343 337 331 323 305 291 286 281 279 279 280 280 279 281 281 282 281 281 282 283 283 283 283 281 280 280 280 281 283 288 292
52 45 40 36 34 32 28 25 21 17 13 9 5 359 355 350 341 328 313 302 293 288 285 283 283 283 284 284 284 284 286 287 287 286 286 285 282 280 279 279 278 282 287 292
53 46 43 43 41 38 35 31 27 23 21 19 17 13 6 359 352 344 333 320 304 298 296 293 291 290 290 288 287 289 291 292 292 292 292 289 286 282 279 276 276 280 285 291
56 52 49 47 45 41 37 34 32 30 28 26 20 17 15 10 5 1 354 343 332 322 314 309 306 301 297 294 293 295 296 297 298 297 296 292 287 282 277 274 276 279 284 291
62 57 54 51 48 44 41 39 37 35 34 32 28 26 24 19 14 8 2 356 348 337 327 319 313 309 304 300 297 298 299 300 300 302 303 299 291 281 275 275 277 279 286 294
66 59 57 53 50 47 44 42 39 37 36 35 33 30 27 24 21 18 13 8 2 356 347 338 331 324 319 311 305 304 306 308 312 313 312 310 302 291 285 282 282 283 290 298
71 63 58 54 51 48 45 43 41 39 39 39 39 36 34 32 29 26 22 18 16 13 7 0 352 346 339 334 331 326 321 320 322 326 327 327 324 320 312 305 299 296 299 304
77 68 61 56 52 49 47 45 43 42 42 43 42 40 39 37 34 32 30 27 25 22 19 16 12 10 8 5 358 349 342 337 336 339 347 355 358 360 359 350 340 328 325 329
82 72 64 59 54 51 49 47 46 45 45 45 44 43 41 39 37 35 33 31 29 28 27 28 29 32 33 32 27 20 15 13 13 15 19 25 30 32 28 23 16 3 356 359
87 76 67 61 57 54 51 49 48 46 45 45 45 45 43 41 39 38 37 35 34 35 34 34 36 38 39 40 41 41 41 39 38 38 40 42 42 40 36 37 35 30 29 26
92 79 69 62 58 55 52 50 49 47 46 45 45 45 44 43 42 41 40 40 39 39 39 40 40 40 41 44 45 47 48 49 49 50 50 49 49 49 49 51 50 46 42 39
99 83 71 63 58 55 52 50 49 48 47 46 45 45 45 44 43 42 42 42 42 42 43 42 41 41 43 45 46 49 52 54 54 54 54 55 55 56 58 57 56 52 49 48
107 87 73 63 57 53 50 48 48 48 47 46 45 45 44 44 44 43 43 44 44 45 45 45 45 45 46 47 48 50 54 57 58 59 60 60 60 60 59 58 57 55 54 53
119 94 75 63 55 51 48 46 45 45 45 45 44 44 44 44 44 43 43 43 44 45 46 47 47 47 48 50 52 55 58 60 62 64 64 64 63 61 60 59 59 58 58 58
139 107 78 61 52 47 43 41 40 41 42 42 42 42 42 43 43 43 43 42 43 44 45 47 47 48 49 51 53 56 59 61 62 63 63 62 62 62 62 61 61 60 59 58
165 138 90 58 45 39 36 35 34 35 36 37 38 38 39 40 40 40 41 41 42 43 44 45 46 47 49 51 52 54 56 58 59 60 60 60 60 61 61 61 60 59 59 58
188 181 146 44 28 25 24 25 26 27 29 30 32 33 34 35 36 37 38 38 39 40 41 42 44 45 46 48 50 51 53 55 56 57 57 58 59 59 59 58 57 56 56 54
207 213 228 295 348 1 6 10 13 15 17 20 22 24 26 27 29 31 33 34 34 36 37 38 39 40 42 44 46 48 49 50 51 51 52 53 54 54 55 55 55 54 53 52
Height
5727 5726 5726 5726 5726 5727 5727 5727 5728 5728 5728 5728 5728 5728 5727 5727 5727 5727 5728 5729 5730 5732 5734 5736 5737 5739 5741 5742 5744 5746 5747 5748 5749 5750 5751 5751 5751 5752 5752 5751 5751 5750 5749 5748
5726 5725 5725 5725 5725 5725 5724 5724 5724 5724 5724 5724 5724 5724 5723 5723 5723 5723 5724 5725 5726 5727 5729 5730 5732 5733 5735 5736 5737 5739 5740 5741 5742 5743 5743 5743 5743 5743 5743 5743 5742 5742 5741 5739
5725 5724 5724 5724 5723 5722 5722 5721 5721 5721 5721 5720 5719 5719 5719 5719 5719 5720 5720 5721 5721 5722 5724 5725 5726 5728 5729 5730 5731 5732 5733 5734 5734 5735 5736 5736 5736 5736 5735 5735 5734 5733 5732 5731
5723 5724 5723 5725 5721 5721 5720 5719 5718 5717 5716 5716 5716 5716 5715 5716 5716 5716 5716 5717 5718 5718 5719 5720 5721 5722 5723 5724 5725 5726 5726 5727 5727 5727 5728 5728 5728 5728 5727 5726 5726 5725 5724 5722
5723 5722 5722 5721 5720 5718 5718 5717 5715 5714 5713 5712 5712 5711 5711 5712 5712 5712 5712 5713 5713 5714 5715 5715 5716 5716 5717 5718 5718 5719 5719 5720 5720 5720 5720 5720 5720 5720 5720 5719 5718 5717 5716 5715
5723 5722 5721 5721 5719 5717 5717 5715 5713 5711 5710 5709 5709 5709 5709 5708 5708 5708 5708 5709 5709 5709 5710 5710 5711 5711 5712 5712 5713 5713 5713 5714 5714 5714 5714 5714 5713 5713 5712 5712 5711 5710 5709 5708
5723 5721 5721 5720 5717 5716 5716 5715 5711 5709 5708 5707 5706 5706 5706 5705 5704 5705 5704 5705 5705 5705 5706 5706 5706 5706 5707 5707 5707 5707 5707 5707 5707 5707 5707 5707 5706 5706 5705 5705 5704 5704 5703 5702
5723 5722 5723 5719 5716 5715 5714 5711 5709 5707 5706 5705 5704 5703 5702 5702 5701 5701 5701 5701 5701 5702 5702 5702 5702 5702 5702 5702 5702 5702 5702 5702 5702 5701 5701 5700 5700 5700 5699 5699 5699 5698 5697 5696
5724 5724 5721 5718 5716 5715 5712 5710 5708 5706 5705 5703 5702 5702 5701 5700 5699 5699 5699 5698 5698 5698 5698 5698 5698 5698 5698 5698 5697 5697 5697 5697 5696 5696 5695 5695 5694 5694 5694 5693 5693 5693 5692 5692
5723 5722 5720 5718 5716 5714 5712 5710 5708 5706 5705 5703 5702 5701 5699 5698 5698 5697 5696 5696 5695 5695 5695 5695 5694 5694 5694 5693 5693 5693 5692 5692 5691 5691 5690 5689 5689 5688 5688 5688 5688 5688 5688 5687
5724 5723 5721 5719 5717 5715 5712 5710 5708 5706 5704 5703 5701 5700 5698 5697 5696 5695 5694 5693 5693 5692 5692 5691 5691 5690 5690 5689 5689 5688 5688 5687 5686 5686 5685 5684 5683 5683 5683 5683 5684 5684 5684 5683
5725 5724 5722 5720 5718 5716 5714 5711 5709 5707 5705 5703 5701 5700 5698 5697 5695 5694 5693 5691 5690 5690 5689 5688 5688 5687 5686 5685 5685 5684 5683 5682 5681 5681 5680 5679 5679 5679 5679 5679 5679 5679 5679 5679
5726 5724 5723 5721 5719 5717 5715 5713 5710 5708 5706 5704 5702 5700 5698 5697 5695 5694 5692 5690 5689 5688 5687 5686 5685 5684 5683 5682 5681 5680 5679 5678 5678 5677 5676 5676 5675 5675 5675 5676 5676 5676 5676 5676
5727 5726 5724 5723 5721 5719 5717 5714 5712 5709 5707 5705 5703 5701 5699 5697 5695 5693 5692 5690 5688 5686 5685 5684 5682 5681 5680 5679 5678 5677 5676 5675 5675 5674 5674 5673 5672 5672 5673 5673 5673 5674 5674 5673
5729 5728 5727 5725 5723 5721 5719 5717 5714 5711 5709 5706 5704 5702 5700 5698 5696 5694 5692 5690 5688 5686 5684 5682 5680 5679 5677 5676 5675 5674 5674 5673 5673 5672 5672 5671 5671 5670 5671 5671 5671 5671 5672 5672
5730 5729 5728 5727 5725 5723 5721 5719 5717 5714 5711 5709 5706 5704 5702 5699 5697 5695 5693 5690 5688 5686 5683 5681 5679 5677 5675 5674 5673 5673 5672 5672 5671 5671 5670 5670 5669 5669 5669 5670 5670 5670 5670 5670
5732 5731 5730 5729 5727 5726 5724 5721 5719 5716 5714 5711 5709 5706 5704 5701 5699 5697 5694 5692 5689 5687 5684 5681 5678 5676 5675 5674 5673 5672 5672 5671 5671 5670 5670 5669 5669 5669 5669 5669 5669 5669 5669 5669
5733 5733 5732 5731 5729 5728 5726 5724 5721 5719 5716 5714 5711 5709 5706 5704 5702 5699 5696 5693 5691 5688 5685 5683 5680 5677 5675 5674 5673 5672 5672 5671 5670 5670 5669 5669 5669 5669 5669 5669 5669 5669 5669 5669
5735 5735 5734 5733 5731 5730 5728 5726 5724 5722 5719 5717 5714 5712 5709 5707 5704 5701 5698 5696 5693 5690 5688 5685 5682 5680 5678 5676 5675 5673 5672 5672 5671 5670 5670 5670 5669 5669 5669 5669 5669 5669 5669 5669
5736 5736 5736 5735 5734 5732 5731 5729 5727 5725 5722 5720 5717 5715 5713 5710 5707 5705 5702 5699 5696 5693 5690 5688 5685 5682 5680 5678 5676 5675 5674 5673 5672 5672 5671 5671 5670 5670 5670 5670 5670 5670 5670 5670
5738 5738 5737 5737 5736 5734 5733 5731 5729 5727 5725 5723 5721 5718 5716 5713 5711 5708 5705 5702 5699 5696 5693 5691 5688 5685 5683 5681 5679 5677 5676 5675 5674 5674 5673 5673 5672 5672 5672 5672 5671 5671 5671 5670
5739 5739 5739 5738 5737 5736 5735 5734 5732 5730 5728 5726 5724 5721 5719 5717 5714 5711 5709 5706 5703 5700 5697 5694 5692 5689 5686 5684 5682 5680 5679 5678 5677 5676 5676 5675 5675 5674 5674 5673 5673 5673 5672 5672
5739 5740 5740 5740 5739 5738 5737 5736 5734 5732 5731 5729 5727 5724 5722 5720 5717 5715 5712 5710 5707 5704 5701 5699 5696 5693 5691 5688 5686 5684 5683 5681 5680 5680 5679 5678 5678 5677 5676 5676 5675 5675 5674 5674
5739 5740 5740 5740 5740 5739 5738 5737 5736 5734 5733 5731 5729 5727 5725 5723 5721 5718 5716 5713 5711 5708 5705 5703 5700 5698 5695 5693 5691 5689 5687 5686 5685 5684 5683 5682 5681 5680 5679 5679 5678 5677 5677 5676
5739 5740 5741 5741 5740 5740 5739 5738 5737 5736 5734 5733 5731 5729 5728 5726 5724 5721 5719 5717 5714 5712 5709 5707 5705 5702 5700 5698 5696 5694 5692 5690 5689 5688 5687 5685 5684 5683 5682 5682 5681 5680 5679 5679
5738 5739 5740 5741 5741 5740 5740 5739 5738 5737 5735 5734 5733 5731 5730 5728 5726 5724 5722 5720 5718 5715 5713 5711 5709 5707 5704 5702 5700 5698 5696 5695 5693 5692 5691 5689 5688 5687 5686 5685 5684 5683 5682 5681
5736 5738 5739 5740 5740 5740 5739 5739 5738 5737 5736 5735 5734 5732 5731 5729 5728 5726 5724 5722 5720 5718 5716 5714 5712 5710 5708 5706 5704 5702 5701 5699 5697 5696 5694 5693 5691 5690 5689 5687 5686 5685 5684 5683